COSMOS 1275 DEB, 39956

Orbit data source: Space-Track

COSMOS 1275 DEB, 39956 is space debris in LEO originally from a launch on Thu, 04 Jun 1981 UTC launched from the Plesetsk Missile And Space Complex (PKMTR). Debris objects in space refer to the collection of defunct objects orbiting the Earth. Examples of debris include non-operational satellites, rocket bodies, and fragments generated from explosions, collisions, or faulty payload assembly.

Loading next visibility...
Identifier
39956, 1981-053NS
Orbit
LEO
Country
Flag of CISCIS
Related business
Manufacturer
Unknown
Mission
Spacecraft
Bus & Motor
Unknown
Mass
Unknown
Launch date (UTC)
1981-06-04 (45 years ago)
Launch vehicle
Unknown
Launch site
Plesetsk Missile And Space Complex (PKMTR)
Object type
Payload
Rocket body
Debris
Shape & HBR
Unknown shape, 0.1 m
Radar Cross Section
Small (<0.1 m²)

Expand to show TLE details & history
Last TLE update: 19 hours ago

TLE from 19 hours ago
0 COSMOS 1275 DEB
1 39956U 81053NS  26119.24485701  .00001440  00000-0  13787-2 0  9996
2 39956  83.0156 308.9190 0120223  69.6996 291.7034 13.76566447595578
Epoch: 2026-04-29T05:52Z
TLE epoch observation values (Epoch: 2026-04-29T05:52:35.645Z)
Latitude
-0.00003°
Longitude
3.56188°
Altitude
947.216 km
Speed
7.394 km/s
True Right ascension
20h 35m 40s
True Declination
0° 00' 00"
Sunlit
Object was in daylight at epoch
Visualization orbit readout
Latitude
Unknown
Longitude
Unknown
Altitude
Unknown
Speed
Unknown
Apparent Right ascension
Unknown
Apparent Declination
Unknown
Sunlit
N/A
Visualization observer readout
Local Sidereal Time
08:46:14
Azimuth
Unknown
Elevation
Unknown
Doppler factor
Unknown
Orbital elements
Apogee altitude
1,061.614 km
Perigee altitude
884.853 km
Semi-major axis
7,351.371 km
Eccentricity
0.01202
Inclination
83.0156°
RAAN
308.919°
Arg. of periapsis
69.6996°
True anomaly
290.41636°
Mean anomaly
291.7034°
Eccentric anomaly
291.06059°
Mean motion
3.44343 °/min
Orbital period
104.55 mins
BSTAR
0.0013787
Loading maneuver chart data...
Computing Atmospheric mass density...
Loading historical data...
Loading historical data...
Loading historical data...
Loading historical data...
Loading historical data...
Loading historical data...
Loading historical data...

Documentation

Showing up to 5 results
|